Theta_e
294 294 294 294 295 296 296 296 296 297 297 297 298 299 300 300 301 301 302 303 303 303 304 305 305 306 309 311 313 311 310 309
294 294 295 295 295 295 295 295 295 295 296 296 297 297 298 298 298 299 299 299 300 300 301 301 302 303 303 305 308 308 308 308
294 294 294 294 294 294 294 294 293 294 294 294 294 295 295 295 296 296 297 297 297 297 298 298 299 300 300 301 302 303 303 305
292 292 293 293 293 293 293 292 292 292 292 293 292 292 292 292 293 293 293 293 294 294 295 295 297 298 299 300 301 302 303 303
291 291 291 292 292 292 292 292 291 291 291 291 291 290 290 291 291 291 291 291 292 292 292 292 293 294 295 298 299 300 300 301
290 290 290 291 291 291 291 291 290 289 289 289 289 289 288 288 288 288 288 289 289 289 290 290 290 292 293 293 294 295 295 296
290 290 290 290 290 290 290 289 288 287 287 287 286 286 286 286 286 286 286 287 287 287 287 288 289 292 292 292 291 291 290 291
289 289 289 289 289 289 289 288 286 286 285 284 284 283 284 284 284 284 285 285 285 285 286 286 287 289 291 291 289 289 290 289
289 289 289 288 288 287 286 286 285 284 283 282 283 282 282 281 282 282 283 283 283 283 284 284 284 288 290 290 289 288 289 288
288 288 287 287 286 285 285 284 284 284 283 283 281 280 280 279 280 281 281 281 280 282 281 281 282 286 288 289 286 286 286 286
287 286 286 285 284 284 283 282 283 283 282 281 280 278 278 280 279 279 278 279 280 280 280 278 279 283 286 287 285 284 285 284
285 285 284 284 283 282 281 281 281 279 279 279 278 277 277 278 277 277 276 277 277 278 279 278 279 280 285 287 285 284 283 282
285 284 283 281 279 278 279 280 277 276 276 276 275 276 278 278 275 274 273 274 275 275 278 279 279 280 285 288 286 285 282 281
280 279 281 276 276 276 278 277 276 273 276 279 279 275 279 279 276 276 273 274 276 276 277 278 279 280 285 286 285 284 281 282
275 274 275 275 275 273 275 276 272 272 274 276 278 281 282 281 278 276 276 276 276 276 277 277 277 279 283 284 281 282 283 284
273 272 273 273 272 270 273 272 271 271 273 275 278 279 280 281 281 278 278 278 279 279 278 278 277 279 283 282 281 282 283 284
268 268 269 269 269 268 266 268 267 270 272 273 275 276 277 278 279 282 283 284 285 286 285 281 282 284 286 285 285 286 285 282
266 266 265 265 266 264 264 261 263 265 268 269 270 271 273 275 276 276 279 284 285 285 285 284 283 286 286 286 286 286 283 278
261 261 261 262 263 266 264 259 261 262 264 265 267 268 270 273 275 277 276 276 277 279 284 285 285 287 287 286 281 276 276 274
256 256 257 259 262 263 261 261 262 263 264 265 266 267 269 272 274 276 276 275 274 276 278 276 287 286 285 282 277 273 270 268
Wind_Speed
8 8 7 8 6 9 9 9 6 6 6 4 5 5 4 3 4 4 4 4 5 6 6 8 8 8 9 10 11 11 9 9
7 7 7 7 9 9 10 11 10 9 6 7 6 6 5 4 4 5 4 4 5 5 7 8 8 8 8 10 11 13 12 10
6 7 8 9 9 9 9 10 8 7 6 6 6 6 6 6 6 5 6 5 6 5 6 7 8 8 9 11 10 12 13 13
6 7 6 6 6 6 6 6 5 5 5 6 6 7 8 7 7 6 7 7 7 6 6 8 8 9 9 10 11 12 13 12
6 6 6 6 5 6 6 6 6 7 7 8 8 9 9 9 9 10 9 8 8 6 6 7 7 8 9 10 11 12 11 12
6 6 5 5 5 5 6 7 6 7 7 7 7 7 8 9 9 9 8 8 9 10 10 9 7 6 7 8 10 11 11 10
6 6 5 4 3 3 4 4 4 4 5 5 6 6 7 7 8 8 9 9 9 10 9 10 7 13 14 12 8 8 9 10
5 5 3 4 3 5 5 4 4 4 4 4 5 5 6 7 7 7 8 8 8 9 9 10 10 16 17 15 7 8 8 8
4 2 2 1 4 4 4 3 3 3 3 3 4 5 6 6 7 8 6 8 9 9 9 9 9 16 16 14 8 8 9 9
3 2 1 1 2 4 5 5 5 6 6 6 5 7 7 7 8 7 7 7 7 7 9 9 9 16 17 13 7 8 9 6
2 1 5 6 6 7 7 7 8 9 9 7 6 6 8 8 8 5 5 9 6 9 8 8 9 14 17 14 6 7 6 4
3 2 3 4 5 6 6 6 6 6 8 8 7 7 8 8 5 8 9 9 8 9 8 8 8 10 16 17 5 4 4 4
1 3 3 3 3 3 5 5 6 7 9 9 7 6 7 9 8 7 7 8 9 9 10 6 7 10 12 13 5 6 4 3
1 2 5 3 1 4 5 6 8 7 9 9 9 6 7 10 10 9 4 6 9 7 8 8 6 4 12 3 4 5 3 2
4 4 5 4 3 5 6 7 7 9 10 10 10 11 10 7 7 7 7 7 7 7 8 7 5 5 2 2 1 1 1 1
2 3 6 5 5 5 6 7 8 8 8 9 10 11 12 12 11 8 8 8 8 7 6 7 6 4 5 5 2 2 2 3
3 5 7 7 8 6 5 6 7 10 8 8 9 9 10 12 13 14 20 20 19 19 13 4 12 11 9 7 8 7 7 3
6 7 8 9 9 6 6 3 5 9 10 8 9 9 9 10 11 13 10 12 9 13 14 12 11 13 10 9 10 10 7 3
5 6 8 9 11 10 7 4 7 8 12 9 9 8 9 9 10 10 9 8 3 4 5 9 13 12 12 13 11 5 6 3
5 6 6 8 11 8 7 7 11 10 9 8 9 9 10 10 11 11 9 6 4 2 2 7 11 8 9 7 4 5 5 4
Wind_Direction
46 48 50 57 45 54 53 58 46 46 38 36 28 17 360 344 335 316 300 291 292 286 277 275 262 252 247 251 247 238 236 236
55 45 49 51 46 46 43 40 32 29 28 32 27 26 25 19 353 337 313 305 283 274 276 271 271 267 259 260 259 256 255 241
63 56 50 47 45 44 36 36 23 11 19 30 21 15 10 2 350 336 324 319 301 300 284 276 269 260 254 259 255 254 254 255
70 62 54 45 39 41 41 34 14 12 14 21 22 13 4 352 343 339 329 328 325 290 289 291 284 277 264 260 259 254 254 251
80 69 60 50 39 25 25 24 15 15 15 16 9 1 353 347 348 345 342 329 319 319 299 288 285 278 273 267 267 271 267 267
91 73 57 49 32 21 20 11 6 11 11 2 351 352 344 345 339 334 329 324 323 324 324 317 306 296 293 278 278 273 273 264
102 99 84 52 28 7 11 7 357 351 343 329 331 332 330 324 324 322 323 326 326 324 318 315 311 306 302 293 283 273 269 273
100 84 68 23 354 4 346 343 341 314 302 307 310 304 304 300 299 303 313 313 315 311 311 306 302 304 303 296 281 268 264 266
128 102 101 4 352 326 309 302 294 277 275 276 311 313 309 310 309 313 309 308 311 307 304 302 296 303 300 291 278 268 259 253
140 147 118 68 327 334 352 3 0 1 348 340 332 323 318 310 307 302 302 304 291 291 292 289 287 298 298 296 278 275 270 264
114 31 24 12 8 6 349 354 352 344 329 318 312 309 314 312 310 302 283 295 295 295 282 275 279 290 296 297 274 275 282 273
116 39 350 13 11 356 338 335 311 313 313 310 311 309 305 305 304 310 311 308 306 298 291 278 273 279 295 293 263 258 267 271
85 349 1 55 58 319 312 295 310 314 309 304 299 300 300 293 300 286 284 293 296 298 303 283 283 278 288 291 278 279 274 273
125 342 327 30 59 317 297 320 314 310 300 302 302 289 297 300 302 305 277 284 293 289 295 300 290 280 285 257 271 276 251 253
37 2 315 334 325 248 297 309 308 301 301 302 298 298 295 286 283 278 283 282 285 287 287 292 289 287 238 215 294 246 236 156
5 306 296 307 296 284 296 302 296 291 291 290 295 293 295 291 285 270 268 247 277 275 267 282 280 263 217 187 186 174 127 93
351 320 305 305 308 299 289 295 291 302 300 298 299 296 293 296 296 272 273 280 280 278 273 239 246 255 204 189 181 164 124 72
306 298 297 298 295 274 266 255 259 274 289 289 285 284 286 288 288 290 295 269 286 293 263 253 239 234 185 173 157 141 117 97
278 289 294 301 301 301 295 280 280 268 272 272 275 273 276 277 277 276 274 277 259 296 284 236 227 192 187 138 104 85 65 69
297 285 287 290 291 292 285 295 295 293 285 279 277 273 270 275 274 271 259 231 237 237 58 2 209 151 119 117 113 122 107 98